Regional Weather Roundup
Issued by NWS

Home | Current Version | Previous Version | Graphics & Text | Print | Product List | Glossary On
Versions: 1 2 3 4 5 6 7 8 9 10 11 12 13 14 15 16 17 18 19 20 21 22 23 24 25 26 27 28 29 30 31 32 33 34 35 36 37 38 39 40 41 42 43 44 45 46 47 48 49 50
000
ASUS43 KMKX 031121
RWRWI

WISCONSIN REGIONAL WEATHER ROUNDUP
NATIONAL WEATHER SERVICE MILWAUKEE/SULLIVAN WI
600 AM CDT SUN MAY 03 2015

NOTE: "FAIR" INDICATES FEW OR NO CLOUDS BELOW 12,000 FEET WITH NO
SIGNIFICANT WEATHER AND/OR OBSTRUCTIONS TO VISIBILITY.

WIZ001-002-006>008-014>016-023>028-031200-
NORTHWEST WISCONSIN

CITY           SKY/WX    TMP DP  RH WIND       PRES   REMARKS
SUPERIOR ARPT  CLOUDY    47  45  90 W3        29.68F
ASHLAND        MOCLDY    62  52  69 SW13G21   29.75R
HAYWARD        CLOUDY    59  49  69 SW7       29.80R
SIREN          MOCLDY    58  50  75 S5        29.78F
CUMBERLAND     CLEAR     52  46  82 CALM      29.80S
RICE LAKE      CLEAR     55  47  76 S5        29.82S
CHETEK         CLEAR     54  49  81 S3        29.80S
LADYSMITH      CLEAR     53  48  84 S6        29.83S
EAU CLAIRE     CLEAR     58  48  69 SW6       29.79S
MENOMONIE      CLEAR     59  49  69 SW6       29.80R
NEW RICHMOND   PTCLDY    53  50  89 S3        29.80S
OSCEOLA        PTCLDY    56  50  79 S6        29.81S
$$

WIZ003>005-009-010-017-018-031200-
NORTH CENTRAL WISCONSIN

CITY           SKY/WX    TMP DP  RH WIND       PRES   REMARKS
MANITOWISH WTR PTCLDY    56  49  79 S7        29.80S
ARBOR VITAE    FAIR      55  49  81 S5        29.81F
WOODRUFF       FAIR      55  49  81 S5        29.81F
RHINELANDER    CLEAR     55  48  77 S8        29.83F
EAGLE RIVER    CLEAR     55  46  74 S3        29.82S
LAND O LAKES   CLEAR     56  48  75 SW6       29.82R
PHILLIPS       MOCLDY    55  48  79 SW7       29.81S
TOMAHAWK       CLEAR     49  46  88 CALM      29.84R
MEDFORD        CLEAR     54  49  81 S8        29.83R
MERRILL        CLEAR     55  49  81 CALM      29.84R
$$

WIZ029-030-035-036-043>047-031200-
CENTRAL WISCONSIN

CITY           SKY/WX    TMP DP  RH WIND       PRES   REMARKS
WAUSAU         CLEAR     56  49  77 S8        29.83S
MOSINEE        CLEAR     52  48  87 S8        29.86F
MARSHFIELD     CLEAR     51  47  86 S6        29.84S
STEVENS POINT  CLEAR     50  46  84 S3        29.86F
WAUPACA        CLEAR     54  47  77 S3        29.88S
WAUTOMA        PTCLDY    46  42  86 CALM      29.88F
WISC RAPIDS    CLEAR     54  47  77 S7        29.86F
CAMP DOUGLAS   CLEAR     57  53  89 S9        29.83F
$$

WIZ011>013-019>022-031-037>040-048>050-031200-
NORTHEAST WISCONSIN

CITY           SKY/WX    TMP DP  RH WIND       PRES   REMARKS
ANTIGO         CLEAR     50  47  87 SW7       29.85F
SHAWANO        CLEAR     56  46  68 CALM      29.87S
OCONTO         CLEAR     54  46  74 SW5       29.86S
STURGEON BAY   CLEAR     55  45  67 SW8       29.90R
GREEN BAY      CLEAR     56  46  69 S3        29.88S
MANITOWOC      MOCLDY    57  48  72 SW6       29.90S
APPLETON       MOCLDY    54  45  71 VRB5      29.89S
CLINTONVILLE   MOCLDY    52  43  71 CALM      29.87S
OSHKOSH        MOCLDY    54  47  77 S10       29.89S
$$

WIZ032>034-041-042-053>061-031200-
SOUTHWEST WISCONSIN

CITY           SKY/WX    TMP DP  RH WIND       PRES   REMARKS
LA CROSSE      PTCLDY    62  51  67 S14       29.81F
SPARTA         PTCLDY    57  47  70 SW3       29.84F
VIROQUA        MOCLDY    57  49  73 S10       29.85F
BOSCOBEL       MOCLDY    61  49  64 SW3       29.86F
PRAIRIE DU CHI CLOUDY    61  46  58 E5        29.85S
PLATTEVILLE    CLOUDY    60  49  68 S13       29.89S
$$

WIZ056-057-062-063-064-067-068-031200-
SOUTH CENTRAL WISCONSIN

CITY           SKY/WX    TMP DP  RH WIND       PRES   REMARKS
REEDSBURG      CLOUDY    59  49  69 S10       29.87F
BARABOO/DELLS  NOT AVBL
LONE ROCK      MOCLDY    59  50  72 CALM      29.88F
MINERAL POINT  CLOUDY    59  50  72 S12       29.89F
MADISON        MOCLDY    59  48  67 S8        29.91S
MIDDLETON      CLOUDY    59  46  61 SW7       29.91S
WATERTOWN      PTCLDY    55  47  74 S3        29.91S
MONROE         PTCLDY    55  46  71 S12       29.91F
JANESVILLE     MOCLDY    61  46  59 S7        29.93S
$$

WIZ051-052-058>065-066-070>072-031200-
SOUTHEAST WISCONSIN

CITY           SKY/WX    TMP DP  RH WIND       PRES   REMARKS
MILWAUKEE      MOCLDY    59  40  49 SW9       29.94S
WAUKESHA       MOCLDY    55  43  62 S5        29.95S
MILWAUKEE/TIMM DRIZZLE   57  45  62 S6        29.95R
RACINE         PTCLDY    60  41  49 SW8       29.96F
BURLINGTON     MOCLDY    53  41  64 CALM      29.95S
KENOSHA        MOCLDY    58  43  57 SW7       29.95F
FOND DU LAC    CLOUDY    57  47  69 S8        29.90F
SHEBOYGAN      CLEAR     51  44  77 S6        29.91S
WEST BEND      LGT RAIN  55  46  71 S7        29.92S
JUNEAU         PTCLDY    54  47  76 S7        29.92S
$$

LSZ147-162-031200-
LAKE SUPERIOR

STATION/POSITION TIME  TEMP    WIND        PRES    WAVE
                       AIR SEA DIR/SP/G            HT/PER
                 (UTC) (F)     (DEG/KT/KT) (MB)    (FT/S)
W MID LAKE BUOY  1050   44 35  220/ 12/ 12 1006.6R   1/ 3
DEVILS ISLAND    1100          280/  5/  5 1006.7R
PORT WING        1030          200/ 13/ 25 1005.8S
SAXON HARBOR     1000   65     190/  9/ 17 1006.1
$$

LMZ867-665-643>646-031200-
LAKE MICHIGAN

STATION/POSITION TIME  TEMP    WIND        PRES    WAVE
                       AIR SEA DIR/SP/G            HT/PER
                 (UTC) (F)     (DEG/KT/KT) (MB)    (FT/S)
CHAMBERS ISLAND  1000   57     170/  8/ 13 1010.8F
NORTHPORT PIER   1000   51     150/  4/  6 1010.8S
SISTER BAY       0902   64     220/ 13/ 16   N/A
KEWAUNEE LAKESHO 1000   59     230/  6/ 10 1011.1F
SHEBOYGAN LAKESH 1100   56     200/  6/  6 1013.4R
PORT WASHINGTON  1000   52     180/  2/  4 1013.9
ATWATER BUOY     1100   52     170/  8/  8 1015.0S
MILWAUKEE LAKESH 1100   60     220/  7/  8   N/A
KENOSHA   LAKESH 1100   54     180/  9/ 10 1014.2S
$$

TC  - TEMPERATURE IN CELSIUS
VSB - VISIBILITY IN STATUTE MILES
WCI - WIND CHILL INDEX
HX  - HEAT INDEX




USA.gov is the U.S. government's official web portal to all federal, state and local government web resources and services.